KAY53 LOWI-ESSA

Flight info

Callsign KAY53
Flight time N/A
Altitude 37000
Route KOGOL M726 MAH L132 AGNAV DCT SUPIL DCT KILNU L132 EKPEK DCT CIPPI DCT BANUB Z212 POKEN DCT VIBAR Z227 NILUG
Aircraft A319/M-SDE3FGHIRWY/LB1

Departure

Time 2026-05-05 17:00
Airport Innsbruck Airport (LOWI)

Arrival

Time N/A
Airport Stockholm-Arlanda Airport (ESSA)
Time Latitude Longitude Altitude Speed Heading
2026-05-05 16:37 47.25821 11.35049 1896 ft 0 kts 171°
2026-05-05 16:53 47.25827 11.35048 1899 ft 4 kts 172°
2026-05-05 16:53 47.25854 11.35046 1900 ft 4 kts 191°
2026-05-05 16:54 47.25876 11.35060 1899 ft 4 kts 240°
2026-05-05 16:54 47.25880 11.35072 1893 ft 0 kts 261°
2026-05-05 16:56 47.25876 11.35038 1897 ft 8 kts 261°
2026-05-05 16:56 47.25863 11.34911 1899 ft 17 kts 261°
2026-05-05 16:57 47.25841 11.34702 1903 ft 23 kts 261°
2026-05-05 16:57 47.25814 11.34462 1907 ft 25 kts 261°
2026-05-05 16:57 47.25786 11.34203 1905 ft 26 kts 261°
2026-05-05 16:57 47.25776 11.33982 1907 ft 17 kts 282°
2026-05-05 16:58 47.25830 11.33838 1907 ft 15 kts 305°
2026-05-05 16:58 47.25897 11.33704 1908 ft 16 kts 317°
2026-05-05 16:58 47.25952 11.33756 1901 ft 0 kts 81°
2026-05-05 16:58 47.25954 11.33774 1906 ft 3 kts 81°
2026-05-05 16:59 47.25958 11.33816 1909 ft 5 kts 81°
2026-05-05 16:59 47.25968 11.33905 1901 ft 25 kts 81°
2026-05-05 16:59 47.26047 11.34641 1907 ft 115 kts 81°
2026-05-05 16:59 47.26175 11.35994 2422 ft 139 kts 89°
2026-05-05 17:00 47.26387 11.37437 3212 ft 152 kts 77°
2026-05-05 17:00 47.26704 11.38993 3674 ft 167 kts 74°
2026-05-05 17:00 47.27090 11.40728 4254 ft 188 kts 76°
2026-05-05 17:00 47.27514 11.42688 4838 ft 215 kts 75°
2026-05-05 17:01 47.27975 11.44948 5504 ft 244 kts 76°
2026-05-05 17:01 47.28463 11.47476 6211 ft 270 kts 76°
2026-05-05 17:01 47.29025 11.50227 7018 ft 290 kts 73°
2026-05-05 17:01 47.29758 11.53011 8209 ft 295 kts 69°
2026-05-05 17:02 47.30594 11.55807 9366 ft 301 kts 67°
2026-05-05 17:02 47.31466 11.58646 10471 ft 306 kts 66°
2026-05-05 17:02 47.32350 11.61567 11314 ft 323 kts 66°
2026-05-05 17:02 47.33295 11.64695 11964 ft 342 kts 66°
2026-05-05 17:03 47.34276 11.67951 12832 ft 353 kts 66°
2026-05-05 17:03 47.35299 11.71284 13744 ft 360 kts 62°
2026-05-05 17:03 47.36771 11.74230 14550 ft 364 kts 41°
2026-05-05 17:03 47.38871 11.76291 15407 ft 365 kts 20°
2026-05-05 17:04 47.41321 11.77192 16284 ft 364 kts
2026-05-05 17:04 47.43834 11.76830 17149 ft 364 kts 341°
2026-05-05 17:04 47.46109 11.75256 18006 ft 361 kts 321°
2026-05-05 17:04 47.47887 11.72676 18780 ft 358 kts 302°
2026-05-05 17:05 47.49269 11.69589 19542 ft 362 kts 299°
2026-05-05 17:05 47.50650 11.66434 20298 ft 366 kts 299°
2026-05-05 17:05 47.52042 11.63246 21008 ft 372 kts 298°
2026-05-05 17:05 47.53456 11.60006 21764 ft 376 kts 298°
2026-05-05 17:06 47.54886 11.56735 22548 ft 381 kts 298°
2026-05-05 17:06 47.56335 11.53422 23304 ft 386 kts 298°
2026-05-05 17:06 47.57803 11.50070 23931 ft 390 kts 298°
2026-05-05 17:06 47.59354 11.46740 24556 ft 397 kts 304°
2026-05-05 17:07 47.61316 11.43799 25174 ft 407 kts 316°
2026-05-05 17:07 47.63662 11.41465 25770 ft 417 kts 328°
2026-05-05 17:07 47.66406 11.39796 26366 ft 427 kts 340°
2026-05-05 17:07 47.69321 11.38993 26900 ft 437 kts 352°
2026-05-05 17:08 47.72366 11.38589 27425 ft 441 kts 352°
2026-05-05 17:08 47.75434 11.38184 27966 ft 445 kts 352°
2026-05-05 17:08 47.78541 11.37769 28514 ft 449 kts 352°
2026-05-05 17:08 47.81671 11.37349 29061 ft 453 kts 352°
2026-05-05 17:09 47.84819 11.36921 29605 ft 457 kts 352°
2026-05-05 17:09 47.87999 11.36515 30103 ft 461 kts 353°
2026-05-05 17:09 47.91120 11.36200 30488 ft 466 kts 354°
2026-05-05 17:09 47.94373 11.35940 30901 ft 470 kts 355°
2026-05-05 17:10 47.97650 11.35709 31339 ft 473 kts 355°
2026-05-05 17:10 48.00952 11.35478 31797 ft 475 kts 354°
2026-05-05 17:10 48.04244 11.35234 32396 ft 473 kts 354°
2026-05-05 17:10 48.07528 11.34949 32987 ft 472 kts 352°
2026-05-05 17:11 48.10785 11.34495 33599 ft 470 kts 350°
2026-05-05 17:11 48.14021 11.33879 34199 ft 467 kts 348°
2026-05-05 17:11 48.17229 11.33175 34758 ft 464 kts 347°
2026-05-05 17:11 48.20436 11.32707 35292 ft 466 kts 356°
2026-05-05 17:12 48.23675 11.33111 35811 ft 469 kts
2026-05-05 17:12 48.26803 11.34487 36326 ft 470 kts 21°
2026-05-05 17:12 48.29704 11.36750 36726 ft 471 kts 32°
2026-05-05 17:12 48.32291 11.39757 36821 ft 467 kts 44°
2026-05-05 17:13 48.36908 11.46486 36815 ft 460 kts 44°
2026-05-05 17:13 48.41500 11.53157 36814 ft 459 kts 44°
2026-05-05 17:14 48.46064 11.59797 36813 ft 459 kts 44°
2026-05-05 17:14 48.50644 11.66487 36812 ft 458 kts 44°
2026-05-05 17:15 48.54470 11.72091 36810 ft 457 kts 45°
2026-05-05 17:15 48.59007 11.78730 36782 ft 457 kts 44°
2026-05-05 17:16 48.63585 11.85397 36802 ft 457 kts 44°
2026-05-05 17:16 48.68151 11.92074 36798 ft 456 kts 44°
2026-05-05 17:17 48.72707 11.98756 36808 ft 455 kts 44°
2026-05-05 17:17 48.77244 12.05427 36802 ft 454 kts 44°
2026-05-05 17:18 48.81770 12.12103 36792 ft 454 kts 44°
2026-05-05 17:18 48.86292 12.18796 36785 ft 453 kts 43°
2026-05-05 17:19 48.91440 12.24254 36785 ft 451 kts 24°
2026-05-05 17:19 48.97138 12.28232 36783 ft 451 kts 23°
2026-05-05 17:20 49.02830 12.32237 36783 ft 451 kts 24°
2026-05-05 17:20 49.08522 12.36275 36782 ft 451 kts 24°
2026-05-05 17:21 49.14171 12.40294 36781 ft 450 kts 24°
2026-05-05 17:22 49.22712 12.46362 36766 ft 449 kts 24°
2026-05-05 17:22 49.28334 12.50372 36762 ft 448 kts 24°
2026-05-05 17:23 49.34057 12.54142 36762 ft 446 kts 15°
2026-05-05 17:23 49.40108 12.56170 36761 ft 445 kts
2026-05-05 17:24 49.46172 12.58063 36762 ft 444 kts 10°
2026-05-05 17:24 49.52229 12.59992 36759 ft 444 kts 10°
2026-05-05 17:25 49.58284 12.61896 36750 ft 443 kts
2026-05-05 17:25 49.64357 12.63452 36745 ft 442 kts
2026-05-05 17:26 49.70450 12.64823 36746 ft 442 kts
2026-05-05 17:26 49.76551 12.66245 36750 ft 443 kts
2026-05-05 17:27 49.82640 12.67743 36734 ft 443 kts
2026-05-05 17:27 49.88702 12.69259 36734 ft 444 kts
2026-05-05 17:28 49.94812 12.70760 36743 ft 444 kts
2026-05-05 17:28 50.00922 12.72265 36760 ft 445 kts
2026-05-05 17:29 50.07039 12.73782 36764 ft 445 kts
2026-05-05 17:29 50.13168 12.75308 36770 ft 446 kts
2026-05-05 17:30 50.19292 12.76835 36778 ft 446 kts
2026-05-05 17:30 50.25428 12.78362 36778 ft 446 kts
2026-05-05 17:31 50.31569 12.79905 36776 ft 446 kts
2026-05-05 17:31 50.37622 12.82134 36771 ft 450 kts 20°
2026-05-05 17:32 50.43124 12.86838 36767 ft 451 kts 30°
2026-05-05 17:32 50.48464 12.91921 36767 ft 451 kts 30°
2026-05-05 17:33 50.53846 12.97017 36761 ft 452 kts 30°
2026-05-05 17:33 50.59227 13.02122 36760 ft 451 kts 30°
2026-05-05 17:34 50.64624 13.07172 36773 ft 451 kts 27°
2026-05-05 17:34 50.70208 13.11670 36771 ft 450 kts 24°
2026-05-05 17:35 50.75870 13.15905 36764 ft 451 kts 24°
2026-05-05 17:35 50.81520 13.20239 36780 ft 451 kts 25°
2026-05-05 17:36 50.87129 13.24701 36784 ft 451 kts 25°
2026-05-05 17:36 50.92730 13.29184 36779 ft 451 kts 25°
2026-05-05 17:37 50.98571 13.32561 36786 ft 444 kts
2026-05-05 17:37 51.04645 13.33939 36802 ft 443 kts
2026-05-05 17:38 51.10755 13.35293 36802 ft 443 kts
2026-05-05 17:38 51.16850 13.36677 36800 ft 443 kts
2026-05-05 17:39 51.22951 13.38059 36797 ft 442 kts
2026-05-05 17:39 51.29046 13.39428 36807 ft 442 kts
2026-05-05 17:40 51.35136 13.40798 36812 ft 441 kts
2026-05-05 17:40 51.41216 13.42174 36807 ft 441 kts
2026-05-05 17:41 51.47289 13.43557 36809 ft 440 kts
2026-05-05 17:41 51.53354 13.44928 36814 ft 440 kts
2026-05-05 17:42 51.59420 13.46305 36807 ft 440 kts
2026-05-05 17:42 51.65476 13.47699 36804 ft 440 kts
2026-05-05 17:43 51.71529 13.49102 36803 ft 440 kts
2026-05-05 17:43 51.77592 13.50499 36818 ft 440 kts
2026-05-05 17:44 51.83653 13.51883 36814 ft 440 kts
2026-05-05 17:44 51.89677 13.53261 36810 ft 440 kts
2026-05-05 17:45 51.95742 13.54662 36811 ft 440 kts
2026-05-05 17:45 52.01798 13.56077 36825 ft 440 kts
2026-05-05 17:46 52.07859 13.57486 36823 ft 440 kts
2026-05-05 17:46 52.13911 13.58903 36821 ft 439 kts
2026-05-05 17:47 52.19967 13.60332 36822 ft 440 kts
2026-05-05 17:47 52.26027 13.61759 36848 ft 439 kts
2026-05-05 17:48 52.32082 13.63187 36836 ft 439 kts
2026-05-05 17:48 52.38127 13.64615 36833 ft 439 kts
2026-05-05 17:49 52.44166 13.66033 36831 ft 438 kts
2026-05-05 17:49 52.50169 13.67457 36846 ft 439 kts
2026-05-05 17:50 52.56209 13.68908 36851 ft 438 kts
2026-05-05 17:50 52.62248 13.70359 36850 ft 438 kts
2026-05-05 17:51 52.68281 13.71788 36848 ft 438 kts
2026-05-05 17:51 52.74310 13.73228 36847 ft 438 kts
2026-05-05 17:52 52.80351 13.74694 36853 ft 438 kts
2026-05-05 17:52 52.86377 13.76148 36851 ft 437 kts
2026-05-05 17:53 52.92397 13.77608 36862 ft 438 kts
2026-05-05 17:53 52.98425 13.79079 36874 ft 438 kts
2026-05-05 17:54 53.04416 13.80538 36873 ft 437 kts
2026-05-05 17:54 53.10434 13.82003 36867 ft 437 kts
2026-05-05 17:55 53.16450 13.83475 36868 ft 437 kts
2026-05-05 17:55 53.22461 13.84954 36885 ft 436 kts
2026-05-05 17:56 53.28461 13.86434 36886 ft 435 kts
2026-05-05 17:56 53.34454 13.87923 36891 ft 435 kts
2026-05-05 17:57 53.40443 13.89402 36885 ft 434 kts
2026-05-05 17:57 53.46427 13.90881 36900 ft 434 kts
2026-05-05 17:58 53.52371 13.92363 36889 ft 435 kts
2026-05-05 17:58 53.58359 13.93864 36887 ft 434 kts
2026-05-05 17:59 53.64346 13.95367 36890 ft 434 kts
2026-05-05 17:59 53.69316 13.96616 36911 ft 434 kts
2026-05-05 18:00 53.75298 13.98120 36889 ft 435 kts
2026-05-05 18:00 53.81304 13.99636 36883 ft 436 kts
2026-05-05 18:01 53.87310 14.01148 36887 ft 437 kts
2026-05-05 18:01 53.93324 14.02682 36923 ft 437 kts
2026-05-05 18:02 53.99348 14.04228 36898 ft 438 kts
2026-05-05 18:02 54.05387 14.05775 36892 ft 439 kts
2026-05-05 18:03 54.11436 14.07321 36896 ft 440 kts
2026-05-05 18:03 54.17462 14.08870 36899 ft 440 kts
2026-05-05 18:04 54.23461 14.11392 36913 ft 452 kts 17°
2026-05-05 18:04 54.29183 14.15955 36914 ft 454 kts 20°
2026-05-05 18:05 54.34900 14.20570 36908 ft 454 kts 20°
2026-05-05 18:05 54.40613 14.25199 36910 ft 454 kts 20°
2026-05-05 18:06 54.46330 14.29837 36944 ft 454 kts 20°
2026-05-05 18:06 54.52079 14.34250 36942 ft 451 kts 18°
2026-05-05 18:07 54.57859 14.38436 36941 ft 450 kts 17°
2026-05-05 18:07 54.63588 14.42607 36933 ft 450 kts 17°
2026-05-05 18:08 54.69336 14.46886 36963 ft 449 kts 18°
2026-05-05 18:08 54.75064 14.51201 36950 ft 448 kts 18°
2026-05-05 18:09 54.80778 14.55510 36945 ft 448 kts 18°
2026-05-05 18:09 54.86542 14.59519 36936 ft 444 kts 14°
2026-05-05 18:10 54.92379 14.62984 36947 ft 443 kts 13°
2026-05-05 18:10 54.98220 14.66400 36932 ft 443 kts 13°
2026-05-05 18:11 55.04049 14.69967 36921 ft 444 kts 14°
2026-05-05 18:11 55.09818 14.73586 36918 ft 444 kts 14°
2026-05-05 18:12 55.15634 14.77244 36918 ft 444 kts 14°
2026-05-05 18:12 55.21443 14.80884 36911 ft 443 kts 14°
2026-05-05 18:13 55.27252 14.84524 36905 ft 443 kts 14°
2026-05-05 18:13 55.33065 14.88179 36908 ft 443 kts 14°